When you browse on this site, cookies collect data to enhance your experience and personalize the content and advertising you see.
Visit our Privacy Policy to learn more. By continuing to use the site, you agree to this use of cookies and data.
EN

Hourly Weather Bolshie Savrushi

Today, 22 September, Tuesday

Time Temperature Precipitation Wind Pressure Humidity
00:00 +5°C° 0 mm 5 mps 744 mmHg 95%
01:00 +5°C° 0 mm 5 mps 744 mmHg 95%
02:00 +5°C° 0 mm 5 mps 744 mmHg 95%
03:00 +5°C° 0 mm 4 mps 745 mmHg 96%
04:00 +5°C° 0 mm 4 mps 745 mmHg 96%
05:00 +5°C° 0 mm 4 mps 745 mmHg 96%
06:00 +5°C° 0 mm 4 mps 745 mmHg 97%
07:00 +6°C° 0 mm 4 mps 745 mmHg 93%
08:00 +7°C° 0 mm 5 mps 745 mmHg 89%
09:00 +8°C° 0 mm 6 mps 745 mmHg 86%
10:00 +9°C° 0 mm 6 mps 745 mmHg 83%
11:00 +10°C° 0 mm 6 mps 745 mmHg 80%
12:00 +10°C° 0 mm 7 mps 744 mmHg 78%
13:00 +11°C° 0 mm 7 mps 744 mmHg 76%
14:00 +12°C° 0 mm 8 mps 744 mmHg 74%
15:00 +13°C° 0 mm 8 mps 743 mmHg 72%
16:00 +13°C° 0 mm 8 mps 743 mmHg 75%
17:00 +12°C° 0 mm 7 mps 743 mmHg 77%
18:00 +13°C° 0 mm 6 mps 743 mmHg 80%
19:00 +12°C° 0 mm 7 mps 743 mmHg 80%
20:00 +12°C° 0 mm 7 mps 742 mmHg 80%
21:00 +12°C° 0 mm 7 mps 742 mmHg 80%
22:00 +12°C° 0 mm 7 mps 742 mmHg 82%
23:00 +12°C° 0 mm 7 mps 741 mmHg 83%

Tomorrow, 23 September, Wednesday

Time Temperature Precipitation Wind Pressure Humidity
00:00 +11°C° 0 mm 6 mps 741 mmHg 84%
01:00 +11°C° 0 mm 6 mps 741 mmHg 83%
02:00 +11°C° 0 mm 6 mps 742 mmHg 82%
03:00 +11°C° 0 mm 7 mps 742 mmHg 81%
04:00 +10°C° 0 mm 6 mps 743 mmHg 83%
05:00 +10°C° 0 mm 6 mps 743 mmHg 84%
06:00 +9°C° 0 mm 6 mps 744 mmHg 86%
07:00 +10°C° 0 mm 7 mps 744 mmHg 79%
08:00 +11°C° 0 mm 8 mps 745 mmHg 72%
09:00 +11°C° 0 mm 8 mps 746 mmHg 65%
10:00 +12°C° 0 mm 8 mps 746 mmHg 60%
11:00 +12°C° 0 mm 8 mps 747 mmHg 54%
12:00 +12°C° 0 mm 7 mps 747 mmHg 49%
13:00 +12°C° 0 mm 7 mps 748 mmHg 50%
14:00 +13°C° 0 mm 6 mps 748 mmHg 51%
15:00 +13°C° 0 mm 6 mps 749 mmHg 52%
16:00 +12°C° 0 mm 5 mps 750 mmHg 58%
17:00 +10°C° 0 mm 4 mps 750 mmHg 63%
18:00 +9°C° 0 mm 3 mps 751 mmHg 69%
19:00 +8°C° 0 mm 3 mps 751 mmHg 71%
20:00 +8°C° 0 mm 2 mps 752 mmHg 72%
21:00 +7°C° 0 mm 2 mps 752 mmHg 74%
22:00 +7°C° 0 mm 2 mps 752 mmHg 76%
23:00 +7°C° 0 mm 1 mps 753 mmHg 77%

Day after tomorrow, 24 September, Thursday

Time Temperature Precipitation Wind Pressure Humidity
00:00 +7°C° 0 mm 1 mps 753 mmHg 79%
01:00 +7°C° 0 mm 1 mps 754 mmHg 80%
02:00 +5°C° 0 mm 0 mps 754 mmHg 81%
03:00 +5°C° 0 mm 0 mps 755 mmHg 82%
04:00 +5°C° 0 mm 0 mps 755 mmHg 81%
05:00 +6°C° 0 mm 1 mps 755 mmHg 80%
06:00 +6°C° 0 mm 1 mps 755 mmHg 79%
07:00 +8°C° 0 mm 1 mps 756 mmHg 73%
08:00 +9°C° 0 mm 2 mps 756 mmHg 68%
09:00 +12°C° 0 mm 2 mps 756 mmHg 62%
10:00 +13°C° 0 mm 2 mps 756 mmHg 57%
11:00 +14°C° 0 mm 2 mps 756 mmHg 53%
12:00 +16°C° 0 mm 2 mps 756 mmHg 48%
13:00 +16°C° 0 mm 2 mps 756 mmHg 49%
14:00 +16°C° 0 mm 2 mps 756 mmHg 50%
15:00 +16°C° 0 mm 2 mps 756 mmHg 51%
16:00 +14°C° 0 mm 2 mps 756 mmHg 56%
17:00 +13°C° 0 mm 2 mps 756 mmHg 61%
18:00 +10°C° 0 mm 2 mps 756 mmHg 66%
19:00 +10°C° 0 mm 2 mps 757 mmHg 68%
20:00 +10°C° 0 mm 2 mps 757 mmHg 71%
21:00 +9°C° 0 mm 2 mps 757 mmHg 73%
22:00 +9°C° 0 mm 2 mps 757 mmHg 74%
23:00 +9°C° 0 mm 2 mps 757 mmHg 76%

25 September, Friday

Time Temperature Precipitation Wind Pressure Humidity
00:00 +8°C° 0 mm 2 mps 757 mmHg 77%
01:00 +8°C° 0 mm 2 mps 758 mmHg 78%
02:00 +8°C° 0 mm 2 mps 758 mmHg 79%
03:00 +8°C° 0 mm 2 mps 758 mmHg 80%
04:00 +8°C° 0 mm 2 mps 758 mmHg 79%
05:00 +8°C° 0 mm 2 mps 758 mmHg 78%
06:00 +8°C° 0 mm 2 mps 758 mmHg 77%
07:00 +9°C° 0 mm 3 mps 758 mmHg 71%
08:00 +11°C° 0 mm 3 mps 759 mmHg 66%
09:00 +13°C° 0 mm 3 mps 759 mmHg 60%
10:00 +14°C° 0 mm 3 mps 759 mmHg 58%
11:00 +16°C° 0 mm 3 mps 759 mmHg 55%
12:00 +17°C° 0 mm 3 mps 759 mmHg 52%
13:00 +17°C° 0 mm 3 mps 759 mmHg 52%
14:00 +17°C° 0 mm 3 mps 759 mmHg 53%
15:00 +17°C° 0 mm 3 mps 759 mmHg 53%
16:00 +16°C° 0 mm 2 mps 759 mmHg 59%
17:00 +14°C° 0 mm 2 mps 759 mmHg 64%
18:00 +12°C° 0 mm 2 mps 759 mmHg 70%
19:00 +12°C° 0 mm 2 mps 759 mmHg 70%
20:00 +10°C° 0 mm 2 mps 759 mmHg 71%
21:00 +10°C° 0 mm 2 mps 759 mmHg 71%
22:00 +10°C° 0 mm 2 mps 759 mmHg 71%
23:00 +9°C° 0 mm 2 mps 759 mmHg 71%

26 September, Saturday

Time Temperature Precipitation Wind Pressure Humidity
00:00 +9°C° 0 mm 2 mps 759 mmHg 72%
01:00 +9°C° 0 mm 2 mps 760 mmHg 73%
02:00 +9°C° 0 mm 2 mps 760 mmHg 74%
03:00 +8°C° 0 mm 2 mps 760 mmHg 74%
04:00 +8°C° 0 mm 2 mps 760 mmHg 75%
05:00 +8°C° 0 mm 2 mps 760 mmHg 76%
06:00 +8°C° 0 mm 2 mps 760 mmHg 76%
07:00 +9°C° 0 mm 2 mps 760 mmHg 72%
08:00 +12°C° 0 mm 2 mps 760 mmHg 67%
09:00 +13°C° 0 mm 2 mps 760 mmHg 63%
10:00 +14°C° 0 mm 2 mps 761 mmHg 60%
11:00 +14°C° 0 mm 3 mps 761 mmHg 56%
12:00 +16°C° 0 mm 3 mps 761 mmHg 53%
13:00 +17°C° 0 mm 3 mps 761 mmHg 53%
14:00 +17°C° 0 mm 2 mps 761 mmHg 54%
15:00 +17°C° 0 mm 2 mps 761 mmHg 54%
16:00 +15°C° 0 mm 2 mps 761 mmHg 59%
17:00 +14°C° 0 mm 2 mps 761 mmHg 63%
18:00 +12°C° 0 mm 2 mps 761 mmHg 67%
19:00 +12°C° 0 mm 2 mps 761 mmHg 67%
20:00 +12°C° 0 mm 2 mps 761 mmHg 67%
21:00 +12°C° 0 mm 2 mps 762 mmHg 67%
22:00 +10°C° 0 mm 2 mps 762 mmHg 68%
23:00 +10°C° 0 mm 2 mps 762 mmHg 69%

27 September, Sunday

Time Temperature Precipitation Wind Pressure Humidity
00:00 +10°C° 0 mm 2 mps 762 mmHg 70%
01:00 +9°C° 0 mm 2 mps 762 mmHg 71%
02:00 +9°C° 0 mm 2 mps 762 mmHg 72%
03:00 +9°C° 0 mm 2 mps 762 mmHg 72%
04:00 +10°C° 0 mm 1 mps 763 mmHg 73%
05:00 +9°C° 0 mm 1 mps 763 mmHg 73%
06:00 +9°C° 0 mm 1 mps 763 mmHg 74%
07:00 +11°C° 0 mm 1 mps 763 mmHg 69%
08:00 +12°C° 0 mm 2 mps 763 mmHg 64%
09:00 +14°C° 0 mm 2 mps 763 mmHg 60%
10:00 +15°C° 0 mm 2 mps 763 mmHg 56%
11:00 +16°C° 0 mm 2 mps 763 mmHg 53%
12:00 +17°C° 0 mm 2 mps 763 mmHg 50%
13:00 +17°C° 0 mm 2 mps 763 mmHg 51%
14:00 +17°C° 0 mm 2 mps 763 mmHg 51%
15:00 +18°C° 0 mm 1 mps 763 mmHg 52%
16:00 +16°C° 0 mm 1 mps 763 mmHg 56%
17:00 +14°C° 0 mm 1 mps 762 mmHg 61%
18:00 +13°C° 0 mm 1 mps 762 mmHg 66%
19:00 +12°C° 0 mm 1 mps 762 mmHg 66%
20:00 +12°C° 0 mm 1 mps 762 mmHg 66%
21:00 +12°C° 0 mm 1 mps 763 mmHg 67%
22:00 +11°C° 0 mm 1 mps 763 mmHg 67%
23:00 +11°C° 0 mm 1 mps 763 mmHg 68%
Show more